{"data":{"norad_id":59333,"epoch":"2026-05-25T05:28:31.816992Z","epoch_age_seconds":55608,"freshness":"FRESH","line1":"1 59333U 24057P   26145.22814603  .00001548  00000+0  65772-4 0  9993","line2":"2 59333  42.9999 126.1530 0001658 271.3963  88.6699 15.27580909121417","mean_motion":15.27580909,"eccentricity":0.0001658,"inclination_deg":42.9999,"raan_deg":126.153,"arg_perigee_deg":271.3963,"mean_anomaly_deg":88.6699,"bstar":6.5772e-5,"rev_number":12141,"period_min":94.266692619422,"perigee_km":481.90878996456,"apogee_km":484.18395837143,"semimajor_km":6861.183374168,"source":"CELESTRAK","updated_at":"2026-05-25T13:38:18.905397Z"}}